Location: Caltech
(34.1382°N, 118.1253°W)
Time: 06:15:05
(UTC-08:00)

Cosmos 44 Rocket - Visible Passes

Search period start: 22 November 2014 00:00
Search period end: 02 December 2014 00:00
Orbit: 659 x 734 km, 65.1° (Epoch: 21 November)

Date Brightness Start Highest point End Pass type
(mag) Time Alt. Az. Time Alt. Az. Time Alt. Az.
23 Nov 6.3 05:43:01 10° SSE 05:46:41 21° ESE 05:50:18 10° ENE visible
25 Nov 5.5 05:25:17 10° S 05:29:30 29° ESE 05:33:40 10° NE visible
26 Nov 3.3 06:06:35 10° SSW 06:11:31 75° WNW 06:16:22 10° NNE visible
27 Nov 4.8 05:07:45 10° S 05:12:20 39° ESE 05:16:51 10° NE visible
28 Nov 6.3 04:10:47 10° SE 04:13:22 14° ESE 04:15:56 10° ENE visible
28 Nov 3.4 05:49:38 10° SW 05:54:27 54° WNW 05:59:12 10° NNE visible
29 Nov 4.0 04:50:22 10° SSW 04:55:11 55° ESE 04:59:55 10° NE visible
30 Nov 5.7 03:52:37 10° SSE 03:56:09 20° ESE 03:59:38 10° ENE visible
30 Nov 3.7 05:32:47 10° SW 05:37:24 40° WNW 05:41:57 10° NNE visible
01 Dec 3.3 04:35:58 35° SSW 04:38:04 76° ESE 04:42:54 10° NNE visible
